User: anonymous   Login
Location: Unspecified
(0.0000°N, 0.0000°E)
Time: 02:05:01
(UTC+00:00)
Language:

IRIDE-MS2-HEO-2 - Orbit

View from above orbital plane
View from above orbital plane
View from above satellite
View from above satellite

Ground track
Ground track

The orbit is defined by the following mean orbital elements,

1 64569U          26145.61825443 +.00000000 +00000-0 +15843-3 0 00008
2 64569  97.7728 260.1564 0003118  81.6686 278.4888 14.93556956    02
Epoch (UTC): 25 May 2026 14:50:17
Eccentricity: 0.0003118
inclination: 97.7728°
perigee height: 585 km
apogee height: 589 km
right ascension of ascending node: 260.1564°
argument of perigee: 81.6686°
revolutions per day: 14.93556956
mean anomaly at epoch: 278.4888°

The dashed part of the orbit path shows where the satellite is in the earth's shadow,  

DLR